Regional Weather Roundup
Issued by NWS

Home | Current Version | Previous Version | Graphics & Text | Print | Product List | Glossary On
Versions: 1 2 3 4 5 6 7 8 9 10 11 12 13 14 15 16 17 18 19 20 21 22 23 24 25 26 27
000
ASUS45 KTFX 281110
RWRMT
MONTANA REGIONAL WEATHER ROUNDUP
NATIONAL WEATHER SERVICE GREAT FALLS MT
500 AM MDT SUN AUG 28 2016

NOTE: "FAIR" INDICATES FEW OR NO CLOUDS BELOW 12000 FEET WITH NO
SIGNIFICANT WEATHER AND/OR OBSTRUCTIONS TO VISIBILITY.

MTZ001>007-043-281200-
WEST OF THE DIVIDE

CITY           SKY/WX    TMP DP  RH WIND       PRES   REMARKS
KALISPELL      PTCLDY    61  43  51 SW9       29.89R
MISSOULA       CLEAR     65  44  46 SW7       29.96R
BUTTE          CLOUDY    48  31  51 S8        30.07R
MULLAN PASS    PTCLDY    50  35  56 W9G18     30.06R
DEER LODGE       N/A     57  39  51 W3        30.03
EUREKA           N/A     52  45  76 CALM      29.90
HAMILTON         N/A     61  39  44 S9        29.98R
LIBBY            N/A     59  37  44 CALM      29.89R
PLAINS           N/A     67  41  38 CALM      29.94R
RONAN            N/A     60  46  59 SW1       29.99R
$$

MTZ008-052>055-281200-
SOUTHWEST MONTANA

CITY           SKY/WX    TMP DP  RH WIND       PRES   REMARKS
BOZEMAN        CLEAR     50  36  58 SE10      30.00R
DILLON         CLEAR     55  28  35 S10       30.05R
W YELLOWSTONE  CLOUDY    36  23  60 CALM      30.20R HAZE
ENNIS          CLOUDY    57  27  30 S15       30.11R
THREE FORKS      N/A     49  24  37 CALM      29.98R
TWIN BRIDGES     N/A     51  30  44 E6        30.02R
$$

MTZ009-010-012-014-046-048-049-054-281200-
EAST SLOPES AND CENTRAL MONTANA

CITY           SKY/WX    TMP DP  RH WIND       PRES   REMARKS
CUT BANK       PTCLDY    48  45  89 NW10      29.91R
GREAT FALLS    CLOUDY    70  39  32 SW14      29.88R
MALMSTROM AFB  CLOUDY    70  40  33 SW10      29.88R
HELENA         CLOUDY    65  40  39 W7        29.97R
CHOTEAU          N/A     61  39  44 W6        29.92R
CONRAD           N/A     68  44  41 W9        29.92R
$$

MTZ011-013-016-021-045-047-050-051-281200-
NORTH CENTRAL MONTANA

CITY           SKY/WX    TMP DP  RH WIND       PRES   REMARKS
HAVRE          CLOUDY    63  48  58 SW6       29.82R
LEWISTOWN      MOCLDY    63  44  50 SE3       29.94R
N BAR RANCH      N/A     57  37  47 VRB3      29.97R
CHINOOK          N/A     64  46  52 S5        29.81R
$$

MTZ017>020-022>027-061-062-281200-
NORTHEAST MONTANA

CITY           SKY/WX    TMP DP  RH WIND       PRES   REMARKS
GLASGOW        PTCLDY    63  46  54 SE9       29.77R
JORDAN           N/A     55  41  59 CALM      29.81S
SIDNEY         CLEAR     53  46  77 CALM      29.82S
WOLF POINT     PTCLDY    59  46  62 SE6       29.79S
POPLAR           N/A     61  45  55 N3        29.80S
SCOBEY           N/A     67  39  35 SE8       29.79R
$$

MTZ028>42-056>058-281200-
SOUTHCENTRAL AND SOUTHEAST MONTANA

CITY           SKY/WX    TMP DP  RH WIND       PRES   REMARKS
BAKER          CLEAR     53  49  86 E8        29.89S
BILLINGS       CLEAR     63  37  38 SW13      29.91R
LIVINGSTON     CLEAR     62  30  29 NW16G23   29.99R
MILES CITY     CLEAR     62  48  60 SE9       29.85R
EKALAKA          N/A     63  48  57 SE10      29.91R
FORSYTH          N/A     59  41  51 CALM      29.85R
LAUREL           N/A     59  34  39 CALM      29.92R
ROUNDUP          N/A     59  35  40 S13       29.83R
$$

REGIONAL REPORTS...DAKOTAS

CITY           SKY/WX    TMP DP  RH WIND       PRES   REMARKS
WILLISTON      CLOUDY    65  48  54 S3        29.82S
MINOT          CLEAR     58  49  72 CALM      29.85S
DICKINSON      CLEAR     57  51  80 S13       29.86S
CROSBY           N/A     63  50  63 S10       29.82S
WATFORD CITY     N/A     61  54  77 CALM      29.84S
BISMARCK       CLEAR     57  54  89 NE7       29.89S
GRAND FORKS    CLEAR     58  56  93 S9        29.98R
FARGO          CLEAR     63  59  87 SE10      29.99F
BUFFALO SD       N/A     58  54  86 SW5       29.84S
RAPID CITY     CLEAR     57  50  77 SE6       29.93R
$$

REGIONAL REPORTS...WYOMING/IDAHO/WASHINGTON

CITY           SKY/WX    TMP DP  RH WIND       PRES   REMARKS
GILLETTE       CLEAR     53  36  52 CALM      29.98S
SHERIDAN       CLEAR     51  38  60 CALM      29.95R
BUFFALO WY     CLOUDY    63  26  24 W9        30.02R
CODY           CLEAR     66  27  22 W8        30.04S
YELLOWSTONE LA   N/A     33  27  78 NW3       30.29R
IDAHO FALLS    CLEAR     56  35  45 E5        30.09R
SALMON         CLEAR     50  36  57 CALM      30.03R
BOISE          CLEAR     62  32  32 E5        29.99R
SPOKANE        PTCLDY    57  43  59 SW14      29.93R
$$

REGIONAL REPORTS...ALBERTA

CITY           SKY/WX    TMP DP  RH WIND       PRES   REMARKS
EDMONTON       CLOUDY    46  43  87 W14G21    29.86R
CALGARY        MOCLDY    46  43  87 N10       29.95R
LETHBRIDGE     PTCLDY    45  43  93 W6        29.92R
MEDICINE HAT   CLEAR     52  48  87 W10       29.89R
WATERTON GATE    N/A     39  37  93 SW1         N/A
MILK RIVER       N/A     45  43  93 W6          N/A
ONEFOUR          N/A     54  52  94 NW10        N/A
$$

REGIONAL REPORTS...SASKATCHEWAN

CITY           SKY/WX    TMP DP  RH WIND       PRES   REMARKS
SWIFT CURRENT  CLOUDY    59  55  88 W12       29.80R
REGINA         CLOUDY    59  48  67 SE8       29.74R
SASKATOON      PTCLDY    59  57  94 NW10G17   29.66R
CYPRESS HILLS    N/A     54  46  76 NW6         N/A
VAL MARIE        N/A     59  46  63 N2          N/A
ROCKGLEN         N/A     63  43  48 SW9         N/A
ASSINIBOIA       N/A     50  48  93 W17         N/A
$$




USA.gov is the U.S. government's official web portal to all federal, state and local government web resources and services.